LU8AQL-WX Weather Reports


Display with metric or nautical units.
time (UTC)temp
F
wind
direction
speed
MPH
gust
MPH
rain 1hr
in
rain 24hr
in
rain mn
in
humidity
%
barometer
mb
20260507225913 55 270 10.0 0.0 0.00 0.00 0.00 83 1001.0
20260507224912 55 270 10.0 0.0 0.00 0.00 0.00 82 1001.0
20260507223911 55 270 10.0 0.0 0.00 0.00 0.00 80 1001.0
20260507222910 55 270 10.0 0.0 0.00 0.00 0.00 79 1000.0
20260507221909 56 270 10.0 0.0 0.00 0.00 0.00 77 1000.0
20260507220908 56 270 10.0 0.0 0.00 0.00 0.00 77 1000.0
20260507215907 56 270 10.0 0.0 0.00 0.00 0.00 75 1000.0
20260507214907 57 270 10.0 0.0 0.00 0.00 0.00 74 1000.0
20260507213906 57 270 10.0 0.0 0.00 0.00 0.00 74 1000.0
20260507212905 57 270 10.0 0.0 0.00 0.00 0.00 74 999.0
20260507211903 57 270 10.0 0.0 0.00 0.00 0.00 73 999.0
20260507210903 56 270 10.0 0.0 0.00 0.00 0.00 74 999.0
20260507205902 57 260 9.0 24.0 0.00 0.00 0.00 72 999.0
20260507204901 57 260 9.0 24.0 0.00 0.00 0.00 72 999.0
20260507203859 58 260 9.0 24.0 0.00 0.00 0.00 71 999.0
20260507202858 58 260 9.0 24.0 0.00 0.00 0.00 70 1001.0
20260507201858 58 260 9.0 24.0 0.00 0.00 0.00 70 1001.0
20260507200856 58 260 9.0 24.0 0.00 0.00 0.00 70 1001.0
20260507195855 58 260 10.0 26.0 0.00 0.00 0.00 70 1001.0
20260507194854 58 260 10.0 26.0 0.00 0.00 0.00 70 1001.0
20260507193853 59 260 10.0 26.0 0.00 0.00 0.00 70 1001.0
20260507192852 59 260 10.0 26.0 0.00 0.00 0.00 70 998.0
20260507191852 59 260 10.0 26.0 0.00 0.00 0.00 70 998.0
20260507190851 59 260 10.0 26.0 0.00 0.00 0.00 70 998.0
20260507185850 59 280 8.0 0.0 0.00 0.00 0.00 72 998.0
20260507184849 59 280 8.0 0.0 0.00 0.00 0.00 72 998.0
20260507183848 59 280 8.0 0.0 0.00 0.00 0.00 73 998.0
20260507182847 59 280 8.0 0.0 0.00 0.00 0.00 73 1001.0
20260507181846 59 280 8.0 0.0 0.00 0.00 0.00 73 1001.0
20260507180845 58 280 8.0 0.0 0.00 0.00 0.00 74 1002.0
20260507175844 58 0 5.0 0.0 0.00 0.00 0.00 74 1002.0
20260507174843 58 0 5.0 0.0 0.00 0.00 0.00 74 1002.0
20260507173842 58 0 5.0 0.0 0.00 0.00 0.00 74 1002.0
20260507172841 58 0 5.0 0.0 0.00 0.00 0.00 74 1003.0
20260507171840 58 0 5.0 0.0 0.00 0.00 0.00 74 1003.0
20260507170839 58 0 5.0 0.0 0.00 0.00 0.00 74 1003.0
20260507165838 59 250 5.0 0.0 0.00 0.00 0.00 75 1003.0
20260507164837 59 250 5.0 0.0 0.00 0.00 0.00 76 1003.0
20260507163834 59 250 5.0 0.0 0.00 0.00 0.00 77 1003.0
20260507162834 59 250 5.0 0.0 0.00 0.00 0.00 77 1002.0
20260507161833 59 250 5.0 0.0 0.00 0.00 0.00 78 1002.0
20260507160832 59 250 5.0 0.0 0.00 0.00 0.00 79 1002.0
20260507155831 60 260 5.0 0.0 0.00 0.00 0.00 80 1002.0
20260507154830 60 260 5.0 0.0 0.00 0.00 0.00 81 1002.0
20260507153829 60 260 5.0 0.0 0.00 0.00 0.00 81 1002.0
20260507152828 60 260 5.0 0.0 0.00 0.00 0.00 81 1002.0
20260507151827 62 260 5.0 0.0 0.00 0.00 0.00 81 1002.0
20260507150826 62 260 5.0 0.0 0.00 0.00 0.00 82 1002.0
20260507145825 62 220 4.0 0.0 0.00 0.00 0.00 83 1002.0
20260507144824 62 220 4.0 0.0 0.00 0.00 0.00 84 1002.0
20260507143823 62 220 4.0 0.0 0.00 0.00 0.00 84 1002.0
20260507142823 62 220 4.0 0.0 0.00 0.00 0.00 84 1001.0
20260507141821 62 220 4.0 0.0 0.00 0.00 0.00 84 1001.0
20260507140820 62 220 4.0 0.0 0.00 0.00 0.00 84 1001.0
20260507135819 62 260 4.0 0.0 0.00 0.00 0.00 82 1001.0
20260507134819 62 260 4.0 0.0 0.00 0.00 0.00 83 1001.0
20260507133817 62 260 4.0 0.0 0.00 0.00 0.00 83 1001.0
20260507132817 61 260 4.0 0.0 0.00 0.00 0.00 84 1002.0
20260507131816 61 260 4.0 0.0 0.00 0.00 0.00 84 1002.0
20260507125814 61 0 4.0 0.0 0.00 0.00 0.00 86 1002.0
20260507124812 61 0 4.0 0.0 0.00 0.00 0.00 86 1002.0
20260507123811 61 0 4.0 0.0 0.00 0.00 0.00 87 1002.0
20260507122811 61 0 4.0 0.0 0.00 0.00 0.00 87 1001.0
20260507121810 61 0 4.0 0.0 0.00 0.00 0.00 87 1003.0
20260507120809 61 0 4.0 0.0 0.00 0.00 0.00 88 1003.0
20260507115808 61 230 4.0 0.0 0.00 0.00 0.00 90 1003.0
20260507114807 61 230 4.0 0.0 0.00 0.00 0.00 90 1003.0
20260507113806 61 230 4.0 0.0 0.00 0.00 0.00 90 1003.0
20260507112806 61 230 4.0 0.0 0.00 0.00 0.00 91 1001.0
20260507111805 61 230 4.0 0.0 0.00 0.00 0.00 92 1001.0
20260507110804 61 230 4.0 0.0 0.00 0.00 0.00 93 1001.0
20260507105803 61 0 4.0 0.0 0.00 0.00 0.00 95 1001.0
20260507104802 61 0 4.0 0.0 0.00 0.00 0.00 96 1001.0
20260507103802 61 0 4.0 0.0 0.00 0.00 0.00 96 1001.0
20260507102800 61 0 4.0 0.0 0.00 0.00 0.00 96 1001.0
20260507101758 62 0 4.0 0.0 0.00 0.00 0.00 95 1001.0
20260507100758 63 0 3.0 0.0 0.00 0.00 0.00 92 1001.0
20260507095757 63 0 3.0 0.0 0.00 0.00 0.00 92 1001.0
20260507094756 63 0 3.0 0.0 0.00 0.00 0.00 92 1001.0
20260507093754 63 0 3.0 0.0 0.00 0.00 0.00 92 1001.0
20260507092754 63 0 3.0 0.0 0.00 0.00 0.00 92 1000.0
20260507091753 63 0 3.0 0.0 0.00 0.00 0.00 93 1000.0
20260507090752 63 0 3.0 0.0 0.00 0.00 0.00 94 1000.0
20260507085751 63 110 10.0 0.0 0.00 0.00 0.00 95 1000.0
20260507084750 63 110 10.0 0.0 0.00 0.00 0.00 95 1000.0
20260507083749 63 110 10.0 0.0 0.00 0.00 0.00 95 1000.0
20260507082748 63 110 10.0 0.0 0.00 0.00 0.00 95 1000.0
20260507081747 63 110 10.0 0.0 0.00 0.00 0.00 94 1000.0
20260507080747 64 100 12.0 0.0 0.01 0.00 0.00 92 1000.0
20260507075746 64 100 12.0 0.0 0.00 0.00 0.00 92 1000.0
20260507074745 64 100 12.0 0.0 0.00 0.00 0.00 92 1000.0
20260507073744 64 100 12.0 0.0 0.00 0.00 0.00 92 1000.0
20260507072743 64 100 12.0 0.0 0.00 0.00 0.00 93 1000.0
20260507071742 64 100 12.0 0.0 0.00 0.00 0.00 94 1000.0
20260507070741 64 100 12.0 0.0 0.00 0.00 0.00 95 1000.0
20260507065740 64 260 6.0 0.0 0.01 0.00 0.00 97 1000.0
20260507064739 64 260 6.0 0.0 0.00 0.00 0.00 97 1000.0
20260507063738 64 260 6.0 0.0 0.01 0.00 0.00 97 1000.0
20260507062737 64 260 6.0 0.0 0.01 0.00 0.00 97 1001.0
20260507061737 64 260 6.0 0.0 0.00 0.00 0.00 97 1001.0
20260507060735 64 140 3.0 0.0 0.01 0.00 0.00 97 1001.0
20260507055734 64 140 3.0 0.0 0.01 0.00 0.00 97 1001.0
20260507054734 64 140 3.0 0.0 0.00 0.00 0.00 97 1001.0
20260507053733 64 140 3.0 0.0 0.03 0.00 0.00 97 1001.0
20260507052732 64 140 3.0 0.0 0.03 0.00 0.00 97 1001.0
20260507051731 64 140 3.0 0.0 0.00 0.00 0.00 97 1001.0
20260507050730 64 140 3.0 0.0 0.00 0.00 0.00 97 1001.0
20260507045728 64 190 8.0 0.0 0.09 0.00 0.00 98 1001.0
20260507044728 65 230 6.0 0.0 0.10 0.00 0.00 97 1001.0
20260507043727 66 210 8.0 0.0 0.06 0.00 0.00 94 1001.0
20260507042726 67 190 11.0 0.0 0.02 0.00 0.00 91 1001.0
20260507041725 68 190 11.0 0.0 0.06 0.00 0.00 88 1001.0
20260507040724 71 0 4.0 0.0 0.05 0.00 0.00 85 1001.0
20260507035723 72 340 6.0 0.0 0.01 0.00 0.00 86 1002.0
20260507034722 73 340 6.0 0.0 0.00 0.00 0.00 86 1001.0
20260507033721 73 340 6.0 0.0 0.00 0.00 0.00 87 1001.0
20260507032720 73 340 6.0 0.0 0.00 0.00 0.00 86 1001.0
20260507031719 73 340 6.0 0.0 0.00 0.00 0.00 86 1001.0
20260507030719 74 330 10.0 0.0 0.00 0.00 0.00 86 1001.0
20260507025718 74 330 10.0 0.0 0.00 0.00 0.00 85 1001.0
20260507024717 74 330 10.0 0.0 0.00 0.00 0.00 85 1001.0
20260507023716 74 330 10.0 0.0 0.00 0.00 0.00 85 1001.0
20260507022715 74 330 10.0 0.0 0.00 0.00 0.00 85 1001.0
20260507021714 74 330 10.0 0.0 0.00 0.00 0.00 85 1001.0
20260507020713 74 330 9.0 0.0 0.00 0.00 0.00 85 1002.0
20260507015712 74 330 9.0 0.0 0.00 0.00 0.00 85 1002.0
20260507014711 74 330 9.0 0.0 0.00 0.00 0.00 84 1002.0
20260507013710 74 330 9.0 0.0 0.00 0.00 0.00 84 1002.0
20260507012709 73 330 9.0 0.0 0.00 0.00 0.00 85 1002.0
20260507011708 73 330 9.0 0.0 0.00 0.00 0.00 87 1002.0
20260507010707 73 330 9.0 0.0 0.00 0.00 0.00 87 1002.0
20260507005706 73 340 8.0 0.0 0.00 0.00 0.00 86 1002.0
20260507004705 73 340 8.0 0.0 0.00 0.00 0.00 87 1002.0
20260507003704 73 340 8.0 0.0 0.00 0.00 0.00 86 1002.0
20260507002703 73 340 8.0 0.0 0.00 0.00 0.00 85 1003.0
20260507001702 73 340 8.0 0.0 0.00 0.00 0.00 85 1003.0
20260507000701 72 360 11.0 0.0 0.00 0.00 0.00 90 1003.0
20260506235700 72 360 11.0 0.0 0.00 0.00 0.00 90 1003.0
20260506234658 72 293 1.0 5.0 0.00 0.00 0.00 89 1003.0
20260506233658 71 70 3.0 0.0 0.00 0.00 0.00 89 1003.0
20260506232656 70 70 3.0 0.0 0.00 0.00 0.00 89 1003.0
20260506231655 70 70 3.0 0.0 0.00 0.00 0.00 89 1003.0